{"data":{"norad_id":66191,"intl_designator":"2025-243Q","name":"STARLINK-35061","alt_names":[],"object_type":"PAYLOAD","status":"ACTIVE","operator":null,"country":"US","launch_date":"2025-10-26","launch_site_code":"AFETR","launch_vehicle":null,"mission":null,"orbit_class":"UNKNOWN","rcs_meters":null,"size_class":null,"mass_kg":null,"dimensions":null,"purposes":["comms"],"wikipedia_slug":null,"has_3d_model":false,"image_url":null,"decayed_at":null,"tle_current":{"epoch":"2026-05-25T00:04:36.048864Z","epoch_age_seconds":85337,"freshness":"FRESH","line1":"1 66191U 25243Q   26145.00319501  .00014026  00000+0  48476-3 0  9990","line2":"2 66191  53.1577 251.0717 0001286  83.3288 276.7859 15.30203042 32330","mean_motion":15.30203042,"eccentricity":0.0001286,"inclination_deg":53.1577,"raan_deg":251.0717,"arg_perigee_deg":83.3288,"mean_anomaly_deg":276.7859,"bstar":0.00048476,"rev_number":3233,"period_min":94.105158627701,"perigee_km":474.32464666262,"apogee_km":476.08732647877,"semimajor_km":6853.3429865707,"source":"CELESTRAK","updated_at":"2026-05-25T13:38:21.121142Z"}}}